• în România
  • Lista ţărilor
  • Pe 7 zile
  • Temperatura apei
  • Hartă satelitară
  • Meteo pe hartă
  • Widget-uri
  • user-avatar
    Intrare

    Meteo pe oră la Polunino

    Astăzi, 20 Iulie, Vineri

    Timp Temperatura Precipitaţii Vânt Presiune Umiditate
    00:00 +18°C° 0,1 mm 2 m/s 731 mmHg 97%
    01:00 +18°C° 0 mm 2 m/s 731 mmHg 97%
    02:00 +17°C° 0 mm 2 m/s 731 mmHg 97%
    03:00 +17°C° 0 mm 2 m/s 731 mmHg 97%
    04:00 +17°C° 0 mm 2 m/s 731 mmHg 97%
    05:00 +18°C° 0 mm 2 m/s 732 mmHg 97%
    06:00 +18°C° 0 mm 2 m/s 732 mmHg 96%
    07:00 +19°C° 0 mm 2 m/s 732 mmHg 92%
    08:00 +21°C° 0 mm 2 m/s 732 mmHg 89%
    09:00 +23°C° 0 mm 2 m/s 733 mmHg 85%
    10:00 +24°C° 0,3 mm 2 m/s 733 mmHg 82%
    11:00 +25°C° 0,3 mm 2 m/s 733 mmHg 79%
    12:00 +26°C° 0,3 mm 2 m/s 733 mmHg 76%
    13:00 +26°C° 1,1 mm 3 m/s 733 mmHg 74%
    14:00 +27°C° 1,1 mm 3 m/s 733 mmHg 73%
    15:00 +27°C° 1,1 mm 3 m/s 733 mmHg 72%
    16:00 +27°C° 0,8 mm 3 m/s 733 mmHg 75%
    17:00 +27°C° 0,8 mm 3 m/s 733 mmHg 78%
    18:00 +27°C° 0,8 mm 3 m/s 732 mmHg 81%
    19:00 +25°C° 0,1 mm 2 m/s 733 mmHg 84%
    20:00 +24°C° 0,1 mm 2 m/s 733 mmHg 87%
    21:00 +21°C° 0,1 mm 2 m/s 733 mmHg 90%
    22:00 +21°C° 0,1 mm 2 m/s 733 mmHg 91%
    23:00 +21°C° 0,1 mm 2 m/s 733 mmHg 91%

    Mâine, 21 Iulie, Sâmbătă

    Timp Temperatura Precipitaţii Vânt Presiune Umiditate
    00:00 +20°C° 0,1 mm 2 m/s 733 mmHg 92%
    01:00 +20°C° 0,3 mm 2 m/s 733 mmHg 93%
    02:00 +20°C° 0,3 mm 2 m/s 733 mmHg 93%
    03:00 +20°C° 0,3 mm 1 m/s 733 mmHg 93%
    04:00 +20°C° 0,5 mm 2 m/s 733 mmHg 94%
    05:00 +20°C° 0,5 mm 2 m/s 733 mmHg 95%
    06:00 +20°C° 0,5 mm 2 m/s 733 mmHg 95%
    07:00 +21°C° 0,5 mm 2 m/s 733 mmHg 91%
    08:00 +23°C° 0,5 mm 2 m/s 734 mmHg 88%
    09:00 +25°C° 0,5 mm 2 m/s 734 mmHg 84%
    10:00 +25°C° 2 mm 2 m/s 734 mmHg 80%
    11:00 +26°C° 2 mm 2 m/s 733 mmHg 77%
    12:00 +27°C° 2 mm 2 m/s 733 mmHg 74%
    13:00 +27°C° 1,2 mm 2 m/s 733 mmHg 73%
    14:00 +27°C° 1,2 mm 2 m/s 733 mmHg 73%
    15:00 +27°C° 1,2 mm 2 m/s 733 mmHg 73%
    16:00 +27°C° 0,7 mm 2 m/s 733 mmHg 76%
    17:00 +27°C° 0,7 mm 2 m/s 733 mmHg 78%
    18:00 +27°C° 0,7 mm 2 m/s 733 mmHg 81%
    19:00 +26°C° 0,4 mm 3 m/s 733 mmHg 84%
    20:00 +24°C° 0,4 mm 3 m/s 733 mmHg 87%
    21:00 +22°C° 0,4 mm 3 m/s 733 mmHg 91%
    22:00 +21°C° 0,1 mm 3 m/s 733 mmHg 92%
    23:00 +21°C° 0,1 mm 3 m/s 733 mmHg 94%

    Poimâine, 22 Iulie, Duminică

    Timp Temperatura Precipitaţii Vânt Presiune Umiditate
    00:00 +21°C° 0,1 mm 2 m/s 733 mmHg 95%
    01:00 +20°C° 0,2 mm 3 m/s 733 mmHg 96%
    02:00 +20°C° 0,2 mm 3 m/s 733 mmHg 97%
    03:00 +20°C° 0,2 mm 3 m/s 733 mmHg 98%
    04:00 +20°C° 0,3 mm 2 m/s 733 mmHg 97%
    05:00 +20°C° 0,3 mm 2 m/s 733 mmHg 97%
    06:00 +20°C° 0,3 mm 2 m/s 733 mmHg 97%
    07:00 +21°C° 0 mm 2 m/s 733 mmHg 96%
    08:00 +21°C° 0 mm 2 m/s 733 mmHg 94%
    09:00 +23°C° 0 mm 2 m/s 733 mmHg 93%
    10:00 +24°C° 0,2 mm 3 m/s 733 mmHg 91%
    11:00 +24°C° 0,2 mm 3 m/s 733 mmHg 89%
    12:00 +25°C° 0,2 mm 3 m/s 734 mmHg 86%
    13:00 +25°C° 0,4 mm 3 m/s 733 mmHg 84%
    14:00 +26°C° 0,4 mm 3 m/s 733 mmHg 82%
    15:00 +27°C° 0,4 mm 3 m/s 733 mmHg 80%
    16:00 +26°C° 0,7 mm 3 m/s 733 mmHg 81%
    17:00 +26°C° 0,7 mm 4 m/s 733 mmHg 83%
    18:00 +26°C° 0,7 mm 4 m/s 733 mmHg 85%
    19:00 +25°C° 0,7 mm 4 m/s 733 mmHg 88%
    20:00 +23°C° 0,7 mm 4 m/s 733 mmHg 91%
    21:00 +22°C° 0,7 mm 4 m/s 733 mmHg 94%
    22:00 +21°C° 0,8 mm 4 m/s 733 mmHg 95%
    23:00 +21°C° 0,8 mm 4 m/s 733 mmHg 95%

    23 Iulie, Luni

    Timp Temperatura Precipitaţii Vânt Presiune Umiditate
    00:00 +21°C° 0,8 mm 4 m/s 733 mmHg 96%
    01:00 +20°C° 0,2 mm 3 m/s 733 mmHg 96%
    02:00 +20°C° 0,2 mm 3 m/s 733 mmHg 97%
    03:00 +20°C° 0,2 mm 3 m/s 733 mmHg 97%
    04:00 +20°C° 0,4 mm 3 m/s 733 mmHg 97%
    05:00 +20°C° 0,4 mm 3 m/s 733 mmHg 97%
    06:00 +20°C° 0,4 mm 3 m/s 733 mmHg 97%
    07:00 +21°C° 0,1 mm 3 m/s 733 mmHg 95%
    08:00 +22°C° 0,1 mm 3 m/s 733 mmHg 93%
    09:00 +24°C° 0,1 mm 3 m/s 733 mmHg 90%
    10:00 +24°C° 0,5 mm 3 m/s 734 mmHg 88%
    11:00 +25°C° 0,5 mm 3 m/s 734 mmHg 86%
    12:00 +25°C° 0,5 mm 3 m/s 734 mmHg 84%
    13:00 +26°C° 1 mm 3 m/s 734 mmHg 82%
    14:00 +26°C° 1 mm 3 m/s 734 mmHg 81%
    15:00 +27°C° 1 mm 3 m/s 734 mmHg 79%
    16:00 +26°C° 0,6 mm 3 m/s 734 mmHg 81%
    17:00 +26°C° 0,6 mm 3 m/s 734 mmHg 83%
    18:00 +26°C° 0,6 mm 3 m/s 734 mmHg 85%
    19:00 +24°C° 0,2 mm 2 m/s 734 mmHg 88%
    20:00 +23°C° 0,2 mm 2 m/s 735 mmHg 90%
    21:00 +21°C° 0,2 mm 2 m/s 735 mmHg 93%
    22:00 +21°C° 0,1 mm 2 m/s 735 mmHg 94%
    23:00 +20°C° 0,1 mm 2 m/s 735 mmHg 94%

    24 Iulie, Marţi

    Timp Temperatura Precipitaţii Vânt Presiune Umiditate
    00:00 +19°C° 0,1 mm 2 m/s 736 mmHg 95%
    01:00 +19°C° 0 mm 2 m/s 736 mmHg 95%
    02:00 +18°C° 0 mm 2 m/s 736 mmHg 95%
    03:00 +18°C° 0 mm 2 m/s 736 mmHg 95%
    04:00 +18°C° 0 mm 2 m/s 736 mmHg 95%
    05:00 +18°C° 0 mm 2 m/s 736 mmHg 94%
    06:00 +19°C° 0 mm 1 m/s 737 mmHg 94%
    07:00 +20°C° 0 mm 2 m/s 737 mmHg 90%
    08:00 +21°C° 0 mm 2 m/s 737 mmHg 86%
    09:00 +23°C° 0 mm 2 m/s 737 mmHg 81%
    10:00 +24°C° 0 mm 2 m/s 738 mmHg 78%
    11:00 +25°C° 0 mm 2 m/s 738 mmHg 74%
    12:00 +26°C° 0 mm 2 m/s 738 mmHg 70%
    13:00 +27°C° 0 mm 2 m/s 738 mmHg 67%
    14:00 +28°C° 0 mm 2 m/s 738 mmHg 65%
    15:00 +28°C° 0 mm 2 m/s 738 mmHg 63%
    16:00 +28°C° 0,2 mm 2 m/s 738 mmHg 67%
    17:00 +27°C° 0,2 mm 2 m/s 738 mmHg 72%
    18:00 +27°C° 0,2 mm 3 m/s 738 mmHg 76%
    19:00 +26°C° 0,2 mm 3 m/s 738 mmHg 81%
    20:00 +24°C° 0,2 mm 3 m/s 738 mmHg 87%
    21:00 +22°C° 0,2 mm 3 m/s 739 mmHg 92%
    22:00 +21°C° 0,2 mm 3 m/s 739 mmHg 93%
    23:00 +21°C° 0,2 mm 3 m/s 739 mmHg 94%

    25 Iulie, Miercuri

    Timp Temperatura Precipitaţii Vânt Presiune Umiditate
    00:00 +20°C° 0,2 mm 3 m/s 739 mmHg 95%
    01:00 +20°C° 0,4 mm 3 m/s 739 mmHg 94%
    02:00 +20°C° 0,4 mm 3 m/s 739 mmHg 94%
    03:00 +20°C° 0,4 mm 4 m/s 740 mmHg 94%
    04:00 +19°C° 0,4 mm 3 m/s 740 mmHg 94%
    05:00 +19°C° 0,4 mm 3 m/s 740 mmHg 94%
    06:00 +19°C° 0,4 mm 2 m/s 740 mmHg 93%
    07:00 +19°C° 0,3 mm 2 m/s 740 mmHg 92%
    08:00 +19°C° 0,3 mm 2 m/s 740 mmHg 91%
    09:00 +20°C° 0,3 mm 3 m/s 740 mmHg 90%
    10:00 +20°C° 0,3 mm 3 m/s 740 mmHg 89%
    11:00 +20°C° 0,3 mm 4 m/s 740 mmHg 88%
    12:00 +20°C° 0,3 mm 5 m/s 740 mmHg 88%
    13:00 +20°C° 0,4 mm 5 m/s 740 mmHg 88%
    14:00 +19°C° 0,4 mm 4 m/s 740 mmHg 88%
    15:00 +19°C° 0,4 mm 4 m/s 740 mmHg 89%
    16:00 +19°C° 0,3 mm 4 m/s 739 mmHg 89%
    17:00 +19°C° 0,3 mm 4 m/s 739 mmHg 90%
    18:00 +18°C° 0,3 mm 4 m/s 739 mmHg 91%
    19:00 +19°C° 0,1 mm 4 m/s 739 mmHg 92%
    20:00 +19°C° 0,1 mm 4 m/s 739 mmHg 93%
    21:00 +19°C° 0,1 mm 4 m/s 740 mmHg 94%
    22:00 +18°C° 0 mm 3 m/s 740 mmHg 95%
    23:00 +18°C° 0 mm 3 m/s 740 mmHg 96%
    Arată mai mult